This is the latest recevied weather packets stored in our database for station/object 9M4RBN-3. If no packets are shown the sender has not sent any weather packets the latest 10 day(s).
| Time | Temp. | Humidity | Pressure | Rain* | Wind** | Luminosity | Snow |
|---|---|---|---|---|---|---|---|
| 1777985501 | 26.67° C | 44% | 1013.8 hPa | - | - | - | - |
| 1777984601 | 26.67° C | 44% | 1013.4 hPa | - | - | - | - |
| 1777983701 | 26.67° C | 45% | 1013.4 hPa | - | - | - | - |
| 1777982801 | 26.67° C | 45% | 1013.4 hPa | - | - | - | - |
| 1777981901 | 26.67° C | 46% | 1013.4 hPa | - | - | - | - |
| 1777981001 | 26.67° C | 48% | 1013.2 hPa | - | - | - | - |
| 1777980101 | 26.11° C | 53% | 1012.8 hPa | - | - | - | - |
| 1777979200 | 25.56° C | 46% | 1012.7 hPa | - | - | - | - |
| 1777978300 | 26.11° C | 37% | 1012.3 hPa | - | - | - | - |
| 1777977400 | 26.67° C | 44% | 1012.3 hPa | - | - | - | - |
| 1777976500 | 26.67° C | 51% | 1012.2 hPa | - | - | - | - |
| 1777975600 | 26.11° C | 56% | 1011.9 hPa | - | - | - | - |
| 1777974700 | 25.56° C | 51% | 1011.8 hPa | - | - | - | - |
| 1777973800 | 25.56° C | 38% | 1011.8 hPa | - | - | - | - |
| 1777972900 | 26.11° C | 40% | 1011.6 hPa | - | - | - | - |
| 1777972000 | 26.67° C | 43% | 1011.5 hPa | - | - | - | - |
| 1777971100 | 26.67° C | 51% | 1012 hPa | - | - | - | - |
| 1777970200 | 26.11° C | 57% | 1012.1 hPa | - | - | - | - |
| 1777969300 | 25.56° C | 54% | 1012.1 hPa | - | - | - | - |
| 1777968400 | 25.56° C | 39% | 1012.1 hPa | - | - | - | - |
| 1777967537 | 26.67° C | 40% | 1012.1 hPa | - | - | - | - |
| 1777967500 | 26.67° C | 40% | 1012.1 hPa | - | - | - | - |
| 1777966600 | 27.22° C | 47% | 1012.2 hPa | - | - | - | - |
| 1777965700 | 27.22° C | 49% | 1012.5 hPa | - | - | - | - |
| 1777964800 | 26.67° C | 51% | 1012.7 hPa | - | - | - | - |
* Rain since midnight (hover to see other rain measurements)
** Current wind speed in m/s (hover to see current wind gust speed)